Sarasota, FL

8:25 PM EST on November 19, 2019 (GMT -0500)
Sarasota-bradenton

Weather History for KSRQ - September, 2019

Change the Weather History Date:

Thursday, September 19, 2019

  Actual Average Record
Temperature  
Mean Temperature 83 °F 81 °F  
Max Temperature 91 °F 89 °F 95 °F (1974)
Min Temperature 75 °F 74 °F 65 °F (1928)
Degree Days  
Heating Degree Days 0 0  
Month to date heating degree days 0 0  
Since 1 July heating degree days 0 0  
Cooling Degree Days 18 16  
Month to date cooling degree days 405 321  
Year to date cooling degree days 3263 2618  
Growing Degree Days 33 (Base 50)    
Moisture  
Dew Point 67 °F    
Average Humidity 63    
Maximum Humidity 88    
Minimum Humidity 41    
Precipitation  
Precipitation 0.02 in 0.23 in 8.00 in (1926)
Month to date precipitation 1.91 5.23  
Year to date precipitation 43.30 43.56  
Sea Level Pressure  
Sea Level Pressure 29.97 in    
Wind  
Wind Speed 9 mph ()    
Max Wind Speed 21 mph    
Max Gust Speed 27 mph    
Visibility 9.7 miles    
Events Rain    
T = Trace of Precipitation, MM = Missing Value Source: Averaged Metar Reports

Daily Weather History Graph

Daily Weather History Graph

Search for Another Location

Airport or City:

Astronomy

Sep. 19, 2019 Rise Set
Actual Time 7:17 AM EDT 7:30 PM EDT
Civil Twilight 6:53 AM EDT 7:53 PM EDT
Nautical Twilight 6:26 AM EDT 8:20 PM EDT
Astronomical Twilight 5:59 AM EDT 8:48 PM EDT
Moon 11:05 PM EDT (9/19) 11:54 AM EDT (9/19)
Length of Visible Light 12h 59m
Length of Day
12h 13m
Waning Gibbous, 74% of the Moon is Illuminated
Sep 19
Waning Gibbous
Sep 21
Last Quarter
Sep 28
New
Oct 5
First Quarter
Oct 13
Full

Hourly Weather History & Observations

Time (EDT) Temp. Heat Index Dew Point Humidity Pressure Visibility Wind Dir Wind Speed Gust Speed Precip Events Conditions
12:53 AM 79.0 °F - 75.0 °F 88% 29.97 in 10.0 mi East 8.1 mph - 0.02 in Rain Light Rain
1:53 AM 78.1 °F - 73.9 °F 87% 29.96 in 10.0 mi ENE 8.1 mph - 0.00 in   Scattered Clouds
2:53 AM 78.1 °F - 73.9 °F 87% 29.95 in 10.0 mi ENE 5.8 mph - N/A   Clear
3:53 AM 77.0 °F - 73.0 °F 88% 29.94 in 10.0 mi ENE 5.8 mph - N/A   Mostly Cloudy
4:53 AM 77.0 °F - 72.0 °F 84% 29.94 in 10.0 mi East 9.2 mph - N/A   Scattered Clouds
5:53 AM 75.9 °F - 71.1 °F 85% 29.95 in 10.0 mi ENE 6.9 mph - N/A   Clear
6:53 AM 75.9 °F - 70.0 °F 82% 29.97 in 10.0 mi ENE 6.9 mph - N/A   Clear
7:53 AM 75.0 °F - 70.0 °F 84% 29.99 in 10.0 mi ENE 8.1 mph - N/A   Clear
8:53 AM 78.1 °F - 70.0 °F 76% 29.99 in 10.0 mi ENE 8.1 mph - N/A   Partly Cloudy
9:53 AM 82.0 °F 85.5 °F 69.1 °F 65% 30.00 in 10.0 mi ENE 9.2 mph - N/A   Clear
10:53 AM 84.0 °F 86.5 °F 66.9 °F 56% 30.01 in 10.0 mi NE 9.2 mph 20.7 mph N/A   Partly Cloudy
11:16 AM 86.0 °F 87.6 °F 64.9 °F 49% 30.01 in 2.0 mi ENE 12.7 mph 21.9 mph N/A   Haze
11:26 AM 86.0 °F 87.6 °F 64.9 °F 49% 30.01 in 10.0 mi NE 12.7 mph 21.9 mph N/A   Scattered Clouds
11:53 AM 87.1 °F 88.3 °F 64.0 °F 46% 30.00 in 10.0 mi ENE 15.0 mph - N/A   Partly Cloudy
12:53 PM 88.0 °F 89.3 °F 64.0 °F 45% 29.99 in 10.0 mi East 16.1 mph 21.9 mph N/A   Partly Cloudy
1:53 PM 89.1 °F 90.0 °F 63.0 °F 42% 29.97 in 10.0 mi ENE 12.7 mph 20.7 mph N/A   Partly Cloudy
2:53 PM 91.0 °F 93.0 °F 64.9 °F 42% 29.95 in 10.0 mi NE 12.7 mph 20.7 mph N/A   Partly Cloudy
3:53 PM 87.1 °F 88.3 °F 64.0 °F 46% 29.94 in 10.0 mi NE 13.8 mph 20.7 mph N/A   Mostly Cloudy
4:53 PM 89.1 °F 90.3 °F 64.0 °F 43% 29.93 in 10.0 mi ENE 18.4 mph 23.0 mph N/A   Partly Cloudy
5:53 PM 88.0 °F 88.4 °F 62.1 °F 42% 29.93 in 10.0 mi East 13.8 mph - N/A   Clear
6:53 PM 86.0 °F 86.3 °F 62.1 °F 44% 29.94 in 10.0 mi ENE 15.0 mph - N/A   Clear
7:53 PM 82.9 °F 84.4 °F 64.0 °F 53% 29.96 in 10.0 mi ENE 11.5 mph - N/A   Clear
8:53 PM 81.0 °F 82.7 °F 64.9 °F 58% 29.99 in 10.0 mi ENE 10.4 mph - N/A   Clear
9:53 PM 80.1 °F 81.9 °F 64.9 °F 60% 30.01 in 10.0 mi ENE 12.7 mph 19.6 mph N/A   Mostly Cloudy
10:53 PM 78.1 °F - 66.0 °F 66% 30.02 in 10.0 mi East 10.4 mph - N/A   Clear
11:53 PM 78.1 °F - 66.0 °F 66% 30.02 in 10.0 mi ENE 11.5 mph - N/A   Overcast